Tracking 20041 objects as of 22-Nov-2019
Live streaming from Space Station
objects crossing your sky now

COSMOS 643

Track COSMOS 643 now!
10-day predictions
COSMOS 643 is classified as:


NORAD ID: 7267
Int'l Code: 1974-024C
Perigee: 1,359.8 km
Apogee: 1,487.6 km
Inclination: 74.0 °
Period: 114.1 minutes
Semi major axis: 7794 km
RCS: 0.6885 m2 (medium)
Launch date: April 23, 1974
Source: Commonwealth of Independent States (former USSR) (CIS)
Launch site: PLESETSK MISSILE AND SPACE COMPLEX (PKMTR)
aabbcc
Your satellite tracking list
Your tracking list is empty




NASA's NSSDC Master Catalog

Two Line Element Set (TLE):
1  7267U 74024C   19325.95852701 +.00000009 +00000-0 +13999-3 0  9999
2  7267 074.0148 136.9800 0081995 126.7020 028.8081 12.61544308099059
Source of the keplerian elements: AFSPC